Time,TemperatureF,DewpointF,PressureIn,WindDirection,WindDirectionDegrees,WindSpeedMPH,WindSpeedGustMPH,Humidity,HourlyPrecipIn,Conditions,Clouds,dailyrainin,SoftwareType,DateUTC
2013-06-28 00:01:00,69.2,60.2,29.73,WNW,287,0.0,0.0,73,0.00,,,0.00,WeatherCatV1.15B25,2013-06-28 05:01:00,
2013-06-28 00:06:00,68.5,60.3,29.73,WNW,286,1.0,2.0,75,0.00,,,0.00,WeatherCatV1.15B25,2013-06-28 05:06:00,
2013-06-28 00:11:00,67.8,60.3,29.73,West,274,3.0,3.0,77,0.00,,,0.00,WeatherCatV1.15B25,2013-06-28 05:11:00,
2013-06-28 00:16:00,67.6,60.1,29.73,WNW,298,2.0,3.0,77,0.00,,,0.00,WeatherCatV1.15B25,2013-06-28 05:16:00,
2013-06-28 00:21:00,67.7,60.2,29.73,WNW,294,3.0,3.0,77,0.00,,,0.00,WeatherCatV1.15B25,2013-06-28 05:21:00,
2013-06-28 00:26:00,67.5,60.4,29.73,WNW,292,2.0,3.0,78,0.00,,,0.00,WeatherCatV1.15B25,2013-06-28 05:26:00,
2013-06-28 00:31:00,67.1,60.0,29.73,WNW,296,3.0,3.0,78,0.00,,,0.00,WeatherCatV1.15B25,2013-06-28 05:31:00,
2013-06-28 00:36:00,66.9,60.2,29.73,WNW,296,2.0,4.0,79,0.00,,,0.00,WeatherCatV1.15B25,2013-06-28 05:36:00,
2013-06-28 00:41:00,66.6,59.9,29.73,WNW,293,2.0,2.0,79,0.00,,,0.00,WeatherCatV1.15B25,2013-06-28 05:41:00,
2013-06-28 00:46:00,66.6,59.9,29.73,WNW,293,3.0,3.0,79,0.00,,,0.00,WeatherCatV1.15B25,2013-06-28 05:46:00,
2013-06-28 00:51:00,66.4,60.0,29.73,WNW,295,3.0,3.0,80,0.00,,,0.00,WeatherCatV1.15B25,2013-06-28 05:51:00,
2013-06-28 00:56:00,66.2,59.8,29.74,WNW,290,3.0,4.0,80,0.00,,,0.00,WeatherCatV1.15B25,2013-06-28 05:56:00,
2013-06-28 01:01:00,66.2,59.8,29.74,West,280,2.0,4.0,80,0.00,,,0.00,WeatherCatV1.15B25,2013-06-28 06:01:00,
2013-06-28 01:06:00,66.9,60.2,29.74,NE,50,0.0,3.0,79,0.00,,,0.00,WeatherCatV1.15B25,2013-06-28 06:06:00,
2013-06-28 01:11:00,67.1,60.0,29.74,East,86,1.0,2.0,78,0.00,,,0.00,WeatherCatV1.15B25,2013-06-28 06:11:00,
2013-06-28 01:16:00,67.1,60.0,29.74,WSW,257,1.0,3.0,78,0.00,,,0.00,WeatherCatV1.15B25,2013-06-28 06:16:00,
2013-06-28 01:21:00,67.1,60.0,29.74,ESE,120,1.0,2.0,78,0.00,,,0.00,WeatherCatV1.15B25,2013-06-28 06:21:00,
2013-06-28 01:26:00,67.1,59.6,29.74,West,271,2.0,4.0,77,0.00,,,0.00,WeatherCatV1.15B25,2013-06-28 06:26:00,
2013-06-28 01:31:00,67.3,59.5,29.74,SSW,199,0.0,4.0,76,0.00,,,0.00,WeatherCatV1.15B25,2013-06-28 06:31:00,
2013-06-28 01:36:00,67.5,59.7,29.74,WSW,245,2.0,4.0,76,0.00,,,0.00,WeatherCatV1.15B25,2013-06-28 06:36:00,
2013-06-28 01:41:00,67.7,59.5,29.74,West,270,3.0,4.0,75,0.00,,,0.00,WeatherCatV1.15B25,2013-06-28 06:41:00,
2013-06-28 01:46:00,67.8,59.6,29.75,West,266,4.0,5.0,75,0.00,,,0.00,WeatherCatV1.15B25,2013-06-28 06:46:00,
2013-06-28 01:51:00,67.8,59.6,29.75,West,268,2.0,5.0,75,0.00,,,0.00,WeatherCatV1.15B25,2013-06-28 06:51:00,
2013-06-28 01:56:00,67.7,59.1,29.75,NE,47,2.0,4.0,74,0.00,,,0.00,WeatherCatV1.15B25,2013-06-28 06:56:00,
2013-06-28 02:01:00,67.8,59.2,29.75,WSW,237,2.0,5.0,74,0.00,,,0.00,WeatherCatV1.15B25,2013-06-28 07:01:00,
2013-06-28 02:06:00,68.1,59.1,29.75,NE,46,2.0,3.0,73,0.00,,,0.00,WeatherCatV1.15B25,2013-06-28 07:06:00,
2013-06-28 02:11:00,68.2,58.8,29.75,East,86,2.0,4.0,72,0.00,,,0.00,WeatherCatV1.15B25,2013-06-28 07:11:00,
2013-06-28 02:16:00,68.4,58.6,29.75,NE,44,1.0,6.0,71,0.00,,,0.00,WeatherCatV1.15B25,2013-06-28 07:16:00,
2013-06-28 02:21:00,68.6,58.8,29.75,NNE,32,3.0,5.0,71,0.00,,,0.00,WeatherCatV1.15B25,2013-06-28 07:21:00,
2013-06-28 02:26:00,68.7,58.5,29.75,ENE,73,2.0,4.0,70,0.00,,,0.00,WeatherCatV1.15B25,2013-06-28 07:26:00,
2013-06-28 02:31:00,68.8,58.6,29.75,North,9,3.0,6.0,70,0.00,,,0.00,WeatherCatV1.15B25,2013-06-28 07:31:00,
2013-06-28 02:36:00,68.6,58.4,29.75,East,91,1.0,4.0,70,0.00,,,0.00,WeatherCatV1.15B25,2013-06-28 07:36:00,
2013-06-28 02:41:00,68.5,58.3,29.75,NNE,33,1.0,4.0,70,0.00,,,0.00,WeatherCatV1.15B25,2013-06-28 07:41:00,
2013-06-28 02:46:00,68.3,58.5,29.75,SW,221,1.0,2.0,71,0.00,,,0.00,WeatherCatV1.15B25,2013-06-28 07:46:00,
2013-06-28 02:51:00,67.9,58.5,29.75,NNE,23,1.0,3.0,72,0.00,,,0.00,WeatherCatV1.15B25,2013-06-28 07:51:00,
2013-06-28 02:56:00,67.7,58.3,29.75,West,263,2.0,5.0,72,0.00,,,0.00,WeatherCatV1.15B25,2013-06-28 07:56:00,
2013-06-28 03:01:00,67.7,58.3,29.75,NE,51,2.0,2.0,72,0.00,,,0.00,WeatherCatV1.15B25,2013-06-28 08:01:00,
2013-06-28 03:06:00,67.5,58.1,29.75,NNE,24,2.0,4.0,72,0.00,,,0.00,WeatherCatV1.15B25,2013-06-28 08:06:00,
2013-06-28 03:11:00,67.4,58.0,29.75,ENE,78,2.0,4.0,72,0.00,,,0.00,WeatherCatV1.15B25,2013-06-28 08:11:00,
2013-06-28 03:16:00,67.1,58.1,29.75,North,4,3.0,4.0,73,0.00,,,0.00,WeatherCatV1.15B25,2013-06-28 08:16:00,
2013-06-28 03:21:00,67.1,58.1,29.75,NE,44,3.0,7.0,73,0.00,,,0.00,WeatherCatV1.15B25,2013-06-28 08:21:00,
2013-06-28 03:26:00,67.0,58.0,29.75,ENE,60,3.0,3.0,73,0.00,,,0.00,WeatherCatV1.15B25,2013-06-28 08:26:00,
2013-06-28 03:31:00,66.8,57.9,29.75,ESE,102,1.0,4.0,73,0.00,,,0.00,WeatherCatV1.15B25,2013-06-28 08:31:00,
2013-06-28 03:36:00,66.6,58.0,29.75,WNW,285,1.0,4.0,74,0.00,,,0.00,WeatherCatV1.15B25,2013-06-28 08:36:00,
2013-06-28 03:41:00,66.1,57.9,29.75,SW,224,1.0,4.0,75,0.00,,,0.00,WeatherCatV1.15B25,2013-06-28 08:41:00,
2013-06-28 03:46:00,65.7,57.9,29.75,WNW,283,2.0,4.0,76,0.00,,,0.00,WeatherCatV1.15B25,2013-06-28 08:46:00,
2013-06-28 03:51:00,65.3,57.9,29.75,East,97,1.0,5.0,77,0.00,,,0.00,WeatherCatV1.15B25,2013-06-28 08:51:00,
2013-06-28 03:56:00,65.0,58.0,29.75,West,260,4.0,4.0,78,0.00,,,0.00,WeatherCatV1.15B25,2013-06-28 08:56:00,
2013-06-28 04:01:00,64.8,57.8,29.74,SW,223,1.0,5.0,78,0.00,,,0.00,WeatherCatV1.15B25,2013-06-28 09:01:00,
2013-06-28 04:06:00,64.6,57.6,29.74,SSW,209,2.0,6.0,78,0.00,,,0.00,WeatherCatV1.15B25,2013-06-28 09:06:00,
2013-06-28 04:11:00,64.5,57.8,29.74,NW,311,2.0,5.0,79,0.00,,,0.00,WeatherCatV1.15B25,2013-06-28 09:11:00,
2013-06-28 04:16:00,64.3,57.6,29.74,West,261,1.0,3.0,79,0.00,,,0.00,WeatherCatV1.15B25,2013-06-28 09:16:00,
2013-06-28 04:21:00,64.1,57.8,29.74,NW,317,1.0,3.0,80,0.00,,,0.00,WeatherCatV1.15B25,2013-06-28 09:21:00,
2013-06-28 04:26:00,63.9,57.6,29.74,WSW,258,1.0,4.0,80,0.00,,,0.00,WeatherCatV1.15B25,2013-06-28 09:26:00,
2013-06-28 04:31:00,63.8,57.9,29.74,SSE,162,0.0,2.0,81,0.00,,,0.00,WeatherCatV1.15B25,2013-06-28 09:31:00,
2013-06-28 04:36:00,63.8,57.9,29.74,East,88,0.0,1.0,81,0.00,,,0.00,WeatherCatV1.15B25,2013-06-28 09:36:00,
2013-06-28 04:41:00,63.8,57.9,29.74,ESE,113,1.0,2.0,81,0.00,,,0.00,WeatherCatV1.15B25,2013-06-28 09:41:00,
2013-06-28 04:46:00,63.9,57.9,29.74,West,259,2.0,3.0,81,0.00,,,0.00,WeatherCatV1.15B25,2013-06-28 09:46:00,
2013-06-28 04:51:00,63.9,57.6,29.74,WNW,283,0.0,2.0,80,0.00,,,0.00,WeatherCatV1.15B25,2013-06-28 09:51:00,
2013-06-28 04:56:00,64.0,57.7,29.74,WSW,255,2.0,3.0,80,0.00,,,0.00,WeatherCatV1.15B25,2013-06-28 09:56:00,
2013-06-28 05:01:00,63.9,57.9,29.74,West,281,2.0,4.0,81,0.00,,,0.00,WeatherCatV1.15B25,2013-06-28 10:01:00,
2013-06-28 05:06:00,63.9,57.9,29.74,WNW,283,4.0,6.0,81,0.00,,,0.00,WeatherCatV1.15B25,2013-06-28 10:06:00,
2013-06-28 05:11:00,63.7,57.8,29.74,WNW,287,6.0,7.0,81,0.00,,,0.00,WeatherCatV1.15B25,2013-06-28 10:11:00,
2013-06-28 05:16:00,63.7,57.8,29.74,WNW,293,6.0,6.0,81,0.00,,,0.00,WeatherCatV1.15B25,2013-06-28 10:16:00,
2013-06-28 05:21:00,63.7,58.1,29.74,WNW,286,4.0,6.0,82,0.00,,,0.00,WeatherCatV1.15B25,2013-06-28 10:21:00,
2013-06-28 05:26:00,63.6,58.0,29.74,WNW,295,4.0,6.0,82,0.00,,,0.00,WeatherCatV1.15B25,2013-06-28 10:26:00,
2013-06-28 05:31:00,63.6,58.0,29.74,WNW,283,5.0,6.0,82,0.00,,,0.00,WeatherCatV1.15B25,2013-06-28 10:31:00,
2013-06-28 05:36:00,63.8,57.9,29.74,WNW,291,7.0,7.0,81,0.00,,,0.00,WeatherCatV1.15B25,2013-06-28 10:36:00,
2013-06-28 05:41:00,64.0,58.0,29.74,WNW,289,5.0,7.0,81,0.00,,,0.00,WeatherCatV1.15B25,2013-06-28 10:41:00,
2013-06-28 05:46:00,64.1,58.1,29.74,WSW,248,4.0,9.0,81,0.00,,,0.00,WeatherCatV1.15B25,2013-06-28 10:46:00,
2013-06-28 05:51:00,64.3,58.0,29.74,WNW,297,5.0,7.0,80,0.00,,,0.00,WeatherCatV1.15B25,2013-06-28 10:51:00,
2013-06-28 05:56:00,64.3,58.0,29.74,WNW,291,5.0,8.0,80,0.00,,,0.00,WeatherCatV1.15B25,2013-06-28 10:56:00,
2013-06-28 06:01:00,64.3,58.0,29.74,NW,322,3.0,7.0,80,0.00,,,0.00,WeatherCatV1.15B25,2013-06-28 11:01:00,
2013-06-28 06:06:00,64.4,58.1,29.74,West,278,7.0,9.0,80,0.00,,,0.00,WeatherCatV1.15B25,2013-06-28 11:06:00,
2013-06-28 06:11:00,64.7,58.0,29.74,West,271,5.0,9.0,79,0.00,,,0.00,WeatherCatV1.15B25,2013-06-28 11:11:00,
2013-06-28 06:16:00,64.9,57.9,29.74,West,278,6.0,7.0,78,0.00,,,0.00,WeatherCatV1.15B25,2013-06-28 11:16:00,
2013-06-28 06:21:00,65.0,58.0,29.74,WNW,290,7.0,8.0,78,0.00,,,0.00,WeatherCatV1.15B25,2013-06-28 11:21:00,
2013-06-28 06:26:00,65.2,58.2,29.74,WNW,291,6.0,9.0,78,0.00,,,0.00,WeatherCatV1.15B25,2013-06-28 11:26:00,
2013-06-28 06:31:00,65.3,57.9,29.74,NNW,340,1.0,8.0,77,0.00,,,0.00,WeatherCatV1.15B25,2013-06-28 11:31:00,
2013-06-28 06:36:00,65.5,58.1,29.74,WNW,283,5.0,8.0,77,0.00,,,0.00,WeatherCatV1.15B25,2013-06-28 11:36:00,
2013-06-28 06:41:00,65.8,58.0,29.73,West,269,1.0,7.0,76,0.00,,,0.00,WeatherCatV1.15B25,2013-06-28 11:41:00,
2013-06-28 06:46:00,66.0,58.2,29.73,South,188,1.0,8.0,76,0.00,,,0.00,WeatherCatV1.15B25,2013-06-28 11:46:00,
2013-06-28 06:51:00,66.3,58.1,29.73,SE,133,1.0,4.0,75,0.00,,,0.00,WeatherCatV1.15B25,2013-06-28 11:51:00,
2013-06-28 06:56:00,66.6,58.4,29.73,WSW,257,5.0,5.0,75,0.00,,,0.00,WeatherCatV1.15B25,2013-06-28 11:56:00,
2013-06-28 07:01:00,66.9,58.3,29.73,NW,305,2.0,6.0,74,0.00,,,0.00,WeatherCatV1.15B25,2013-06-28 12:01:00,
2013-06-28 07:06:00,67.4,58.4,29.73,NE,53,2.0,6.0,73,0.00,,,0.00,WeatherCatV1.15B25,2013-06-28 12:06:00,
2013-06-28 07:11:00,68.0,58.2,29.73,ENE,58,3.0,7.0,71,0.00,,,0.00,WeatherCatV1.15B25,2013-06-28 12:11:00,
2013-06-28 07:16:00,68.5,58.3,29.73,West,281,2.0,8.0,70,0.00,,,0.00,WeatherCatV1.15B25,2013-06-28 12:16:00,
2013-06-28 07:21:00,69.0,58.4,29.73,WSW,243,6.0,12.0,69,0.00,,,0.00,WeatherCatV1.15B25,2013-06-28 12:21:00,
2013-06-28 07:26:00,69.4,58.4,29.73,ENE,75,2.0,11.0,68,0.00,,,0.00,WeatherCatV1.15B25,2013-06-28 12:26:00,
2013-06-28 07:31:00,69.7,58.2,29.73,NNE,22,2.0,6.0,67,0.00,,,0.00,WeatherCatV1.15B25,2013-06-28 12:31:00,
2013-06-28 07:36:00,70.0,58.1,29.73,NW,310,7.0,14.0,66,0.00,,,0.00,WeatherCatV1.15B25,2013-06-28 12:36:00,
2013-06-28 07:41:00,70.3,58.0,29.73,NE,47,2.0,11.0,65,0.00,,,0.00,WeatherCatV1.15B25,2013-06-28 12:41:00,
2013-06-28 07:46:00,70.6,57.8,29.73,SSE,163,5.0,9.0,64,0.00,,,0.00,WeatherCatV1.15B25,2013-06-28 12:46:00,
2013-06-28 07:51:00,70.9,58.1,29.73,NNE,29,4.0,12.0,64,0.00,,,0.00,WeatherCatV1.15B25,2013-06-28 12:51:00,
2013-06-28 07:56:00,71.1,57.9,29.73,NNE,18,5.0,17.0,63,0.00,,,0.00,WeatherCatV1.15B25,2013-06-28 12:56:00,
2013-06-28 08:01:00,71.4,58.6,29.72,East,82,7.0,12.0,64,0.00,,,0.00,WeatherCatV1.15B25,2013-06-28 13:01:00,
2013-06-28 08:06:00,71.6,58.3,29.73,WNW,300,5.0,12.0,63,0.00,,,0.00,WeatherCatV1.15B25,2013-06-28 13:06:00,
2013-06-28 08:11:00,71.8,58.1,29.73,ENE,65,5.0,11.0,62,0.00,,,0.00,WeatherCatV1.15B25,2013-06-28 13:11:00,
2013-06-28 08:16:00,71.9,57.7,29.73,NE,46,13.0,16.0,61,0.00,,,0.00,WeatherCatV1.15B25,2013-06-28 13:16:00,
2013-06-28 08:21:00,72.1,58.8,29.73,NW,326,12.0,19.0,63,0.00,,,0.00,WeatherCatV1.15B25,2013-06-28 13:21:00,
2013-06-28 08:26:00,72.3,58.1,29.73,WSW,247,14.0,20.0,61,0.00,,,0.00,WeatherCatV1.15B25,2013-06-28 13:26:00,
2013-06-28 08:31:00,72.4,58.6,29.73,North,11,8.0,14.0,62,0.00,,,0.00,WeatherCatV1.15B25,2013-06-28 13:31:00,
2013-06-28 08:36:00,72.5,58.3,29.73,East,85,5.0,16.0,61,0.00,,,0.00,WeatherCatV1.15B25,2013-06-28 13:36:00,
2013-06-28 08:41:00,72.7,58.9,29.73,NNW,333,5.0,12.0,62,0.00,,,0.00,WeatherCatV1.15B25,2013-06-28 13:41:00,
2013-06-28 08:46:00,72.8,58.6,29.73,North,1,11.0,17.0,61,0.00,,,0.00,WeatherCatV1.15B25,2013-06-28 13:46:00,
2013-06-28 08:51:00,73.1,58.8,29.72,NE,36,7.0,16.0,61,0.00,,,0.00,WeatherCatV1.15B25,2013-06-28 13:51:00,
2013-06-28 08:56:00,73.3,58.6,29.73,NE,56,11.0,20.0,60,0.00,,,0.00,WeatherCatV1.15B25,2013-06-28 13:56:00,
2013-06-28 09:01:00,73.3,58.6,29.72,NW,324,14.0,18.0,60,0.00,,,0.00,WeatherCatV1.15B25,2013-06-28 14:01:00,
2013-06-28 09:06:00,73.6,59.3,29.73,North,356,13.0,13.0,61,0.00,,,0.00,WeatherCatV1.15B25,2013-06-28 14:06:00,
2013-06-28 09:11:00,73.9,59.1,29.73,NE,38,10.0,16.0,60,0.00,,,0.00,WeatherCatV1.15B25,2013-06-28 14:11:00,
2013-06-28 09:16:00,74.1,59.3,29.72,ENE,58,7.0,16.0,60,0.00,,,0.00,WeatherCatV1.15B25,2013-06-28 14:16:00,
2013-06-28 09:21:00,74.2,59.9,29.72,East,83,7.0,12.0,61,0.00,,,0.00,WeatherCatV1.15B25,2013-06-28 14:21:00,
2013-06-28 09:26:00,74.4,59.1,29.72,North,351,13.0,18.0,59,0.00,,,0.00,WeatherCatV1.15B25,2013-06-28 14:26:00,
2013-06-28 09:31:00,74.4,59.6,29.72,North,0,10.0,16.0,60,0.00,,,0.00,WeatherCatV1.15B25,2013-06-28 14:31:00,
2013-06-28 09:36:00,74.5,59.7,29.72,ENE,68,21.0,21.0,60,0.00,,,0.00,WeatherCatV1.15B25,2013-06-28 14:36:00,
2013-06-28 09:41:00,74.8,60.4,29.71,NNW,343,12.0,18.0,61,0.00,,,0.00,WeatherCatV1.15B25,2013-06-28 14:41:00,
2013-06-28 09:46:00,74.8,60.0,29.71,South,178,6.0,22.0,60,0.00,,,0.00,WeatherCatV1.15B25,2013-06-28 14:46:00,
2013-06-28 09:51:00,74.9,60.1,29.71,NW,319,4.0,19.0,60,0.00,,,0.00,WeatherCatV1.15B25,2013-06-28 14:51:00,
2013-06-28 09:56:00,75.1,59.8,29.71,NNE,23,16.0,20.0,59,0.00,,,0.00,WeatherCatV1.15B25,2013-06-28 14:56:00,
2013-06-28 10:01:00,75.2,60.3,29.71,ENE,65,13.0,18.0,60,0.00,,,0.00,WeatherCatV1.15B25,2013-06-28 15:01:00,
2013-06-28 10:06:00,75.4,60.1,29.71,NNE,27,11.0,20.0,59,0.00,,,0.00,WeatherCatV1.15B25,2013-06-28 15:06:00,
2013-06-28 10:11:00,75.4,60.1,29.70,NNW,341,17.0,19.0,59,0.00,,,0.00,WeatherCatV1.15B25,2013-06-28 15:11:00,
2013-06-28 10:16:00,75.7,60.8,29.71,NNE,32,6.0,16.0,60,0.00,,,0.00,WeatherCatV1.15B25,2013-06-28 15:16:00,
2013-06-28 10:21:00,75.9,59.6,29.70,NE,55,16.0,22.0,57,0.00,,,0.00,WeatherCatV1.15B25,2013-06-28 15:21:00,
2013-06-28 10:26:00,75.9,59.6,29.70,NNE,12,11.0,23.0,57,0.00,,,0.00,WeatherCatV1.15B25,2013-06-28 15:26:00,
2013-06-28 10:31:00,76.2,59.8,29.70,ENE,61,15.0,23.0,57,0.00,,,0.00,WeatherCatV1.15B25,2013-06-28 15:31:00,
2013-06-28 10:36:00,76.7,59.8,29.70,NNE,17,12.0,18.0,56,0.00,,,0.00,WeatherCatV1.15B25,2013-06-28 15:36:00,
2013-06-28 10:41:00,76.7,60.3,29.70,North,8,16.0,18.0,57,0.00,,,0.00,WeatherCatV1.15B25,2013-06-28 15:41:00,
2013-06-28 10:46:00,76.6,59.2,29.70,North,356,19.0,20.0,55,0.00,,,0.00,WeatherCatV1.15B25,2013-06-28 15:46:00,
2013-06-28 10:51:00,76.4,59.5,29.70,North,4,0.0,0.0,56,0.00,,,0.00,WeatherCatV1.15B25,2013-06-28 15:51:00,
2013-06-28 10:56:00,76.7,59.3,29.70,North,5,0.0,0.0,55,0.00,,,0.00,WeatherCatV1.15B25,2013-06-28 15:56:00,
2013-06-28 11:01:00,77.1,59.7,29.70,North,11,0.0,0.0,55,0.00,,,0.00,WeatherCatV1.15B25,2013-06-28 16:01:00,
2013-06-28 11:06:00,77.4,60.5,29.70,WNW,295,0.0,0.0,56,0.00,,,0.00,WeatherCatV1.15B25,2013-06-28 16:06:00,
2013-06-28 11:10:00,77.5,61.0,29.70,NNE,18,0.0,0.0,57,0.00,,,0.00,WeatherCatV1.15B25,2013-06-28 16:10:00,
2013-06-28 11:15:00,77.5,61.0,29.70,North,-999,-999.0,0.0,57,0.00,,,0.00,WeatherCatV1.15B25,2013-06-28 16:15:00,
2013-06-28 11:20:00,77.6,59.6,29.70,NE,50,0.0,0.0,54,0.00,,,0.00,WeatherCatV1.15B25,2013-06-28 16:20:00,
2013-06-28 11:26:00,77.7,60.2,29.70,NW,307,0.0,0.0,55,0.00,,,0.00,WeatherCatV1.15B25,2013-06-28 16:26:00,
2013-06-28 11:31:00,77.7,59.2,29.70,NNE,22,0.0,0.0,53,0.00,,,0.00,WeatherCatV1.15B25,2013-06-28 16:31:00,
2013-06-28 11:36:00,77.9,60.4,29.70,North,349,0.0,0.0,55,0.00,,,0.00,WeatherCatV1.15B25,2013-06-28 16:36:00,
2013-06-28 11:41:00,77.6,59.6,29.71,NE,50,0.0,0.0,54,0.00,,,0.00,WeatherCatV1.15B25,2013-06-28 16:41:00,
2013-06-28 11:45:00,77.7,59.7,29.70,NNE,16,0.0,0.0,54,0.00,,,0.00,WeatherCatV1.15B25,2013-06-28 16:45:00,
2013-06-28 11:50:00,77.9,59.4,29.71,NNE,21,0.0,0.0,53,0.00,,,0.00,WeatherCatV1.15B25,2013-06-28 16:50:00,
2013-06-28 11:55:00,78.1,59.0,29.71,NNE,20,0.0,0.0,52,0.00,,,0.00,WeatherCatV1.15B25,2013-06-28 16:55:00,
2013-06-28 12:00:00,78.5,59.4,29.71,NE,41,0.0,0.0,52,0.00,,,0.00,WeatherCatV1.15B25,2013-06-28 17:00:00,
2013-06-28 12:05:00,78.9,60.3,29.71,North,1,0.0,0.0,53,0.00,,,0.00,WeatherCatV1.15B25,2013-06-28 17:05:00,
2013-06-28 12:10:00,79.1,59.4,29.71,North,3,0.0,0.0,51,0.00,,,0.00,WeatherCatV1.15B25,2013-06-28 17:10:00,
2013-06-28 12:15:00,78.8,59.7,29.71,NE,49,0.0,0.0,52,0.00,,,0.00,WeatherCatV1.15B25,2013-06-28 17:15:00,
2013-06-28 12:20:00,78.5,59.9,29.71,NE,49,0.0,0.0,53,0.00,,,0.00,WeatherCatV1.15B25,2013-06-28 17:20:00,
2013-06-28 12:25:00,78.2,59.6,29.71,North,4,0.0,0.0,53,0.00,,,0.00,WeatherCatV1.15B25,2013-06-28 17:25:00,
2013-06-28 12:30:00,79.0,59.3,29.71,NNW,332,0.0,0.0,51,0.00,,,0.00,WeatherCatV1.15B25,2013-06-28 17:30:00,
2013-06-28 12:36:00,79.2,59.5,29.71,North,11,0.0,0.0,51,0.00,,,0.00,WeatherCatV1.15B25,2013-06-28 17:36:00,
2013-06-28 12:41:00,79.5,59.2,29.71,North,354,0.0,0.0,50,0.00,,,0.00,WeatherCatV1.15B25,2013-06-28 17:41:00,
2013-06-28 12:46:00,79.6,58.7,29.71,NNE,20,0.0,0.0,49,0.00,,,0.00,WeatherCatV1.15B25,2013-06-28 17:46:00,
2013-06-28 12:51:00,79.6,59.9,29.70,NNE,13,0.0,0.0,51,0.00,,,0.00,WeatherCatV1.15B25,2013-06-28 17:51:00,
2013-06-28 12:56:00,79.6,58.2,29.71,NNW,330,0.0,0.0,48,0.00,,,0.00,WeatherCatV1.15B25,2013-06-28 17:56:00,
2013-06-28 13:01:00,79.4,58.0,29.70,NNE,33,0.0,0.0,48,0.00,,,0.00,WeatherCatV1.15B25,2013-06-28 18:01:00,
2013-06-28 13:06:00,79.3,58.5,29.70,North,11,0.0,0.0,49,0.00,,,0.00,WeatherCatV1.15B25,2013-06-28 18:06:00,
2013-06-28 13:11:00,79.1,57.7,29.70,NE,56,0.0,0.0,48,0.00,,,0.00,WeatherCatV1.15B25,2013-06-28 18:11:00,
2013-06-28 13:16:00,79.6,58.7,29.70,ENE,63,0.0,0.0,49,0.00,,,0.00,WeatherCatV1.15B25,2013-06-28 18:16:00,
2013-06-28 13:21:00,79.7,59.4,29.70,West,260,0.0,0.0,50,0.00,,,0.00,WeatherCatV1.15B25,2013-06-28 18:21:00,
2013-06-28 13:26:00,80.4,57.7,29.70,NW,318,0.0,0.0,46,0.00,,,0.00,WeatherCatV1.15B25,2013-06-28 18:26:00,
2013-06-28 13:31:00,80.1,58.6,29.70,North,0,0.0,0.0,48,0.00,,,0.00,WeatherCatV1.15B25,2013-06-28 18:31:00,
2013-06-28 13:36:00,80.3,58.2,29.69,North,11,0.0,0.0,47,0.00,,,0.00,WeatherCatV1.15B25,2013-06-28 18:36:00,
2013-06-28 13:41:00,79.6,58.2,29.70,NNE,24,0.0,0.0,48,0.00,,,0.00,WeatherCatV1.15B25,2013-06-28 18:41:00,
2013-06-28 13:46:00,79.7,58.2,29.70,NNE,18,0.0,0.0,48,0.00,,,0.00,WeatherCatV1.15B25,2013-06-28 18:46:00,
2013-06-28 13:51:00,79.7,58.2,29.70,NNE,16,0.0,0.0,48,0.00,,,0.00,WeatherCatV1.15B25,2013-06-28 18:51:00,
2013-06-28 13:56:00,79.5,56.9,29.70,SE,134,0.0,0.0,46,0.00,,,0.00,WeatherCatV1.15B25,2013-06-28 18:56:00,
2013-06-28 14:01:00,79.2,57.2,29.70,NE,36,0.0,0.0,47,0.00,,,0.00,WeatherCatV1.15B25,2013-06-28 19:01:00,
2013-06-28 14:06:00,79.7,58.2,29.70,North,1,0.0,0.0,48,0.00,,,0.00,WeatherCatV1.15B25,2013-06-28 19:06:00,
2013-06-28 14:11:00,79.3,57.3,29.70,NNE,21,0.0,0.0,47,0.00,,,0.00,WeatherCatV1.15B25,2013-06-28 19:11:00,
2013-06-28 14:16:00,78.9,56.3,29.70,NE,52,0.0,0.0,46,0.00,,,0.00,WeatherCatV1.15B25,2013-06-28 19:16:00,
2013-06-28 14:21:00,78.6,56.7,29.70,East,79,0.0,0.0,47,0.00,,,0.00,WeatherCatV1.15B25,2013-06-28 19:21:00,
2013-06-28 14:26:00,78.6,57.2,29.70,North,352,0.0,0.0,48,0.00,,,0.00,WeatherCatV1.15B25,2013-06-28 19:26:00,
2013-06-28 14:31:00,78.3,56.4,29.70,NNW,345,0.0,0.0,47,0.00,,,0.00,WeatherCatV1.15B25,2013-06-28 19:31:00,
2013-06-28 14:36:00,78.1,56.8,29.70,NNE,13,0.0,0.0,48,0.00,,,0.00,WeatherCatV1.15B25,2013-06-28 19:36:00,
2013-06-28 14:41:00,77.7,57.0,29.70,NNE,18,0.0,0.0,49,0.00,,,0.00,WeatherCatV1.15B25,2013-06-28 19:41:00,
2013-06-28 14:46:00,77.4,57.3,29.71,NNW,335,0.0,0.0,50,0.00,,,0.00,WeatherCatV1.15B25,2013-06-28 19:46:00,
2013-06-28 14:51:00,77.1,57.0,29.71,SSE,151,0.0,0.0,50,0.00,,,0.00,WeatherCatV1.15B25,2013-06-28 19:51:00,
2013-06-28 14:56:00,76.9,57.4,29.71,NW,309,0.0,0.0,51,0.00,,,0.00,WeatherCatV1.15B25,2013-06-28 19:56:00,
2013-06-28 15:01:00,76.7,57.7,29.71,SE,126,0.0,0.0,52,0.00,,,0.00,WeatherCatV1.15B25,2013-06-28 20:01:00,
2013-06-28 15:06:00,76.6,57.6,29.71,ENE,58,0.0,0.0,52,0.00,,,0.00,WeatherCatV1.15B25,2013-06-28 20:06:00,
2013-06-28 15:11:00,76.4,58.0,29.71,North,352,0.0,0.0,53,0.00,,,0.00,WeatherCatV1.15B25,2013-06-28 20:11:00,
2013-06-28 15:16:00,76.4,58.0,29.71,NNE,23,0.0,18.0,53,0.00,,,0.00,WeatherCatV1.15B25,2013-06-28 20:16:00,
2013-06-28 15:21:00,76.4,58.0,29.71,East,84,0.0,9.0,53,0.00,,,0.00,WeatherCatV1.15B25,2013-06-28 20:21:00,
2013-06-28 15:26:00,76.7,58.3,29.71,North,0,0.0,0.0,53,0.00,,,0.00,WeatherCatV1.15B25,2013-06-28 20:26:00,
2013-06-28 15:31:00,77.1,59.2,29.70,NNW,348,0.0,0.0,54,0.00,,,0.00,WeatherCatV1.15B25,2013-06-28 20:31:00,
2013-06-28 15:36:00,77.2,58.7,29.71,NNE,26,0.0,0.0,53,0.00,,,0.00,WeatherCatV1.15B25,2013-06-28 20:36:00,
2013-06-28 15:41:00,77.5,59.5,29.70,NNE,16,0.0,0.0,54,0.00,,,0.00,WeatherCatV1.15B25,2013-06-28 20:41:00,
2013-06-28 15:46:00,77.6,59.6,29.70,NNE,24,0.0,0.0,54,0.00,,,0.00,WeatherCatV1.15B25,2013-06-28 20:46:00,
2013-06-28 15:51:00,77.5,59.0,29.70,NE,54,0.0,0.0,53,0.00,,,0.00,WeatherCatV1.15B25,2013-06-28 20:51:00,
2013-06-28 15:56:00,77.5,59.5,29.70,West,276,0.0,0.0,54,0.00,,,0.00,WeatherCatV1.15B25,2013-06-28 20:56:00,
2013-06-28 16:01:00,77.3,58.3,29.70,NW,304,0.0,0.0,52,0.00,,,0.00,WeatherCatV1.15B25,2013-06-28 21:01:00,
2013-06-28 16:06:00,76.9,58.4,29.70,NNE,18,0.0,0.0,53,0.00,,,0.00,WeatherCatV1.15B25,2013-06-28 21:06:00,
2013-06-28 16:11:00,76.7,58.8,29.70,WNW,283,0.0,0.0,54,0.00,,,0.00,WeatherCatV1.15B25,2013-06-28 21:11:00,
2013-06-28 16:16:00,77.3,59.3,29.70,NNE,19,0.0,0.0,54,0.00,,,0.00,WeatherCatV1.15B25,2013-06-28 21:16:00,
2013-06-28 16:21:00,78.1,60.1,29.70,North,4,0.0,0.0,54,0.00,,,0.00,WeatherCatV1.15B25,2013-06-28 21:21:00,
2013-06-28 16:26:00,78.6,60.5,29.70,NNE,27,0.0,0.0,54,0.00,,,0.00,WeatherCatV1.15B25,2013-06-28 21:26:00,
2013-06-28 16:31:00,78.6,60.0,29.70,North,4,0.0,0.0,53,0.00,,,0.00,WeatherCatV1.15B25,2013-06-28 21:31:00,
2013-06-28 16:36:00,78.7,59.6,29.70,NNW,330,0.0,0.0,52,0.00,,,0.00,WeatherCatV1.15B25,2013-06-28 21:36:00,
2013-06-28 16:41:00,78.3,60.3,29.70,NNW,332,0.0,0.0,54,0.00,,,0.00,WeatherCatV1.15B25,2013-06-28 21:41:00,
2013-06-28 16:46:00,78.0,60.0,29.70,South,171,0.0,0.0,54,0.00,,,0.00,WeatherCatV1.15B25,2013-06-28 21:46:00,
2013-06-28 16:51:00,78.3,60.3,29.70,East,94,0.0,0.0,54,0.00,,,0.00,WeatherCatV1.15B25,2013-06-28 21:51:00,
2013-06-28 16:56:00,78.2,60.2,29.70,NNW,342,0.0,0.0,54,0.00,,,0.00,WeatherCatV1.15B25,2013-06-28 21:56:00,
2013-06-28 17:01:00,78.2,60.7,29.70,NNW,345,0.0,0.0,55,0.00,,,0.00,WeatherCatV1.15B25,2013-06-28 22:01:00,
2013-06-28 17:06:00,78.1,60.6,29.70,North,7,0.0,0.0,55,0.00,,,0.00,WeatherCatV1.15B25,2013-06-28 22:06:00,
2013-06-28 17:11:00,78.2,61.7,29.70,NW,318,0.0,0.0,57,0.00,,,0.00,WeatherCatV1.15B25,2013-06-28 22:11:00,
2013-06-28 17:16:00,78.2,60.7,29.70,ESE,105,0.0,0.0,55,0.00,,,0.00,WeatherCatV1.15B25,2013-06-28 22:16:00,
2013-06-28 17:21:00,78.4,60.9,29.69,North,351,0.0,0.0,55,0.00,,,0.00,WeatherCatV1.15B25,2013-06-28 22:21:00,
2013-06-28 17:26:00,78.7,62.2,29.69,NW,321,0.0,0.0,57,0.00,,,0.00,WeatherCatV1.15B25,2013-06-28 22:26:00,
2013-06-28 17:31:00,79.1,61.0,29.69,NE,44,0.0,0.0,54,0.00,,,0.00,WeatherCatV1.15B25,2013-06-28 22:31:00,
2013-06-28 17:36:00,79.2,60.6,29.69,NE,41,0.0,0.0,53,0.00,,,0.00,WeatherCatV1.15B25,2013-06-28 22:36:00,
2013-06-28 17:41:00,79.5,61.4,29.69,NW,319,0.0,0.0,54,0.00,,,0.00,WeatherCatV1.15B25,2013-06-28 22:41:00,
2013-06-28 17:46:00,79.0,60.4,29.69,NNW,343,0.0,0.0,53,0.00,,,0.00,WeatherCatV1.15B25,2013-06-28 22:46:00,
2013-06-28 17:51:00,78.5,59.9,29.69,NNE,26,0.0,0.0,53,0.00,,,0.00,WeatherCatV1.15B25,2013-06-28 22:51:00,
2013-06-28 17:56:00,78.4,59.8,29.68,NNW,343,0.0,0.0,53,0.00,,,0.00,WeatherCatV1.15B25,2013-06-28 22:56:00,
2013-06-28 18:01:00,78.6,60.0,29.68,North,6,0.0,0.0,53,0.00,,,0.00,WeatherCatV1.15B25,2013-06-28 23:01:00,
2013-06-28 18:06:00,78.6,60.5,29.68,North,353,0.0,0.0,54,0.00,,,0.00,WeatherCatV1.15B25,2013-06-28 23:06:00,
2013-06-28 18:11:00,78.6,60.5,29.68,North,2,0.0,0.0,54,0.00,,,0.00,WeatherCatV1.15B25,2013-06-28 23:11:00,
2013-06-28 18:16:00,78.5,59.9,29.68,North,1,0.0,0.0,53,0.00,,,0.00,WeatherCatV1.15B25,2013-06-28 23:16:00,
2013-06-28 18:21:00,78.5,59.9,29.68,NNE,20,0.0,0.0,53,0.00,,,0.00,WeatherCatV1.15B25,2013-06-28 23:21:00,
2013-06-28 18:26:00,78.4,60.9,29.68,West,278,0.0,0.0,55,0.00,,,0.00,WeatherCatV1.15B25,2013-06-28 23:26:00,
2013-06-28 18:31:00,78.5,59.9,29.68,NNE,31,0.0,0.0,53,0.00,,,0.00,WeatherCatV1.15B25,2013-06-28 23:31:00,
2013-06-28 18:36:00,78.5,60.4,29.68,North,9,0.0,0.0,54,0.00,,,0.00,WeatherCatV1.15B25,2013-06-28 23:36:00,
2013-06-28 18:41:00,78.7,60.1,29.68,NNE,22,0.0,0.0,53,0.00,,,0.00,WeatherCatV1.15B25,2013-06-28 23:41:00,
2013-06-28 18:46:00,78.7,60.1,29.68,NNE,25,0.0,0.0,53,0.00,,,0.00,WeatherCatV1.15B25,2013-06-28 23:46:00,
2013-06-28 18:51:00,78.5,60.4,29.68,NNW,340,0.0,0.0,54,0.00,,,0.00,WeatherCatV1.15B25,2013-06-28 23:51:00,
2013-06-28 18:56:00,78.6,61.1,29.68,North,10,0.0,0.0,55,0.00,,,0.00,WeatherCatV1.15B25,2013-06-28 23:56:00,
2013-06-28 19:01:00,78.4,59.8,29.68,NNE,15,0.0,0.0,53,0.00,,,0.00,WeatherCatV1.15B25,2013-06-29 00:01:00,
2013-06-28 19:06:00,78.2,60.2,29.68,NW,316,0.0,0.0,54,0.00,,,0.00,WeatherCatV1.15B25,2013-06-29 00:06:00,
2013-06-28 19:11:00,78.3,60.8,29.68,NNW,345,0.0,0.0,55,0.00,,,0.00,WeatherCatV1.15B25,2013-06-29 00:11:00,
2013-06-28 19:16:00,78.7,61.2,29.68,NE,35,0.0,0.0,55,0.00,,,0.00,WeatherCatV1.15B25,2013-06-29 00:16:00,
2013-06-28 19:21:00,78.7,60.1,29.68,NNW,327,0.0,0.0,53,0.00,,,0.00,WeatherCatV1.15B25,2013-06-29 00:21:00,
2013-06-28 19:26:00,78.5,60.4,29.68,NNW,328,0.0,0.0,54,0.00,,,0.00,WeatherCatV1.15B25,2013-06-29 00:26:00,
2013-06-28 19:31:00,78.3,60.3,29.68,NNW,330,0.0,0.0,54,0.00,,,0.00,WeatherCatV1.15B25,2013-06-29 00:31:00,
2013-06-28 19:36:00,78.1,60.1,29.68,NNE,20,0.0,0.0,54,0.00,,,0.00,WeatherCatV1.15B25,2013-06-29 00:36:00,
2013-06-28 19:41:00,77.9,60.4,29.69,ENE,70,0.0,0.0,55,0.00,,,0.00,WeatherCatV1.15B25,2013-06-29 00:41:00,
2013-06-28 19:46:00,77.8,60.3,29.68,NW,314,0.0,0.0,55,0.00,,,0.00,WeatherCatV1.15B25,2013-06-29 00:46:00,
2013-06-28 19:51:00,77.7,60.2,29.68,North,4,0.0,0.0,55,0.00,,,0.00,WeatherCatV1.15B25,2013-06-29 00:51:00,
2013-06-28 19:56:00,77.4,60.5,29.69,North,10,0.0,0.0,56,0.00,,,0.00,WeatherCatV1.15B25,2013-06-29 00:56:00,
2013-06-28 20:01:00,76.9,60.5,29.68,NNW,342,0.0,0.0,57,0.00,,,0.00,WeatherCatV1.15B25,2013-06-29 01:01:00,
2013-06-28 20:06:00,76.5,60.6,29.69,NNW,346,0.0,0.0,58,0.00,,,0.00,WeatherCatV1.15B25,2013-06-29 01:06:00,
2013-06-28 20:11:00,76.1,60.2,29.69,ENE,63,0.0,0.0,58,0.00,,,0.00,WeatherCatV1.15B25,2013-06-29 01:11:00,
2013-06-28 20:16:00,75.9,60.5,29.69,NNW,329,0.0,0.0,59,0.00,,,0.00,WeatherCatV1.15B25,2013-06-29 01:16:00,
2013-06-28 20:21:00,75.7,60.8,29.69,NNE,18,0.0,0.0,60,0.00,,,0.00,WeatherCatV1.15B25,2013-06-29 01:21:00,
2013-06-28 20:26:00,75.8,60.4,29.68,North,1,0.0,0.0,59,0.00,,,0.00,WeatherCatV1.15B25,2013-06-29 01:26:00,
2013-06-28 20:31:00,76.0,60.6,29.68,NNW,335,0.0,0.0,59,0.00,,,0.00,WeatherCatV1.15B25,2013-06-29 01:31:00,
2013-06-28 20:36:00,75.8,60.4,29.68,North,5,0.0,0.0,59,0.00,,,0.00,WeatherCatV1.15B25,2013-06-29 01:36:00,
2013-06-28 20:41:00,75.6,60.2,29.69,NW,307,0.0,0.0,59,0.00,,,0.00,WeatherCatV1.15B25,2013-06-29 01:41:00,
2013-06-28 20:46:00,75.5,60.2,29.69,East,87,0.0,0.0,59,0.00,,,0.00,WeatherCatV1.15B25,2013-06-29 01:46:00,
2013-06-28 20:51:00,75.4,60.5,29.69,NE,46,0.0,0.0,60,0.00,,,0.00,WeatherCatV1.15B25,2013-06-29 01:51:00,
2013-06-28 20:56:00,75.0,60.6,29.69,NE,56,0.0,0.0,61,0.00,,,0.00,WeatherCatV1.15B25,2013-06-29 01:56:00,
2013-06-28 21:01:00,74.9,60.5,29.69,North,356,0.0,0.0,61,0.00,,,0.00,WeatherCatV1.15B25,2013-06-29 02:01:00,
2013-06-28 21:06:00,74.6,60.2,29.69,WNW,290,0.0,0.0,61,0.00,,,0.00,WeatherCatV1.15B25,2013-06-29 02:06:00,
2013-06-28 21:11:00,74.5,60.2,29.69,NNW,330,0.0,0.0,61,0.00,,,0.00,WeatherCatV1.15B25,2013-06-29 02:11:00,
2013-06-28 21:16:00,74.6,60.2,29.69,NNW,329,0.0,0.0,61,0.00,,,0.00,WeatherCatV1.15B25,2013-06-29 02:16:00,
2013-06-28 21:21:00,74.3,60.4,29.69,North,6,0.0,0.0,62,0.00,,,0.00,WeatherCatV1.15B25,2013-06-29 02:21:00,
2013-06-28 21:26:00,74.0,60.1,29.69,NNW,331,0.0,0.0,62,0.00,,,0.00,WeatherCatV1.15B25,2013-06-29 02:26:00,
2013-06-28 21:31:00,74.0,60.1,29.70,ENE,70,0.0,0.0,62,0.00,,,0.00,WeatherCatV1.15B25,2013-06-29 02:31:00,
2013-06-28 21:36:00,73.8,60.4,29.70,NW,326,0.0,0.0,63,0.00,,,0.00,WeatherCatV1.15B25,2013-06-29 02:36:00,
2013-06-28 21:41:00,73.7,60.3,29.70,NE,38,0.0,0.0,63,0.00,,,0.00,WeatherCatV1.15B25,2013-06-29 02:41:00,
2013-06-28 21:46:00,73.5,60.1,29.70,NW,323,0.0,0.0,63,0.00,,,0.00,WeatherCatV1.15B25,2013-06-29 02:46:00,
2013-06-28 21:51:00,73.4,60.0,29.70,NNW,347,0.0,0.0,63,0.00,,,0.00,WeatherCatV1.15B25,2013-06-29 02:51:00,
2013-06-28 21:56:00,73.4,60.0,29.69,NNW,342,0.0,0.0,63,0.00,,,0.00,WeatherCatV1.15B25,2013-06-29 02:56:00,
2013-06-28 22:01:00,73.2,59.8,29.70,NE,46,0.0,0.0,63,0.00,,,0.00,WeatherCatV1.15B25,2013-06-29 03:01:00,
2013-06-28 22:06:00,73.1,59.7,29.70,East,91,0.0,0.0,63,0.00,,,0.00,WeatherCatV1.15B25,2013-06-29 03:06:00,
2013-06-28 22:11:00,72.9,59.5,29.70,NW,320,0.0,0.0,63,0.00,,,0.00,WeatherCatV1.15B25,2013-06-29 03:11:00,
2013-06-28 22:16:00,72.9,59.5,29.70,NE,53,0.0,0.0,63,0.00,,,0.00,WeatherCatV1.15B25,2013-06-29 03:16:00,
2013-06-28 22:21:00,72.9,59.5,29.70,North,5,0.0,0.0,63,0.00,,,0.00,WeatherCatV1.15B25,2013-06-29 03:21:00,
2013-06-28 22:26:00,72.9,59.5,29.70,NE,36,0.0,0.0,63,0.00,,,0.00,WeatherCatV1.15B25,2013-06-29 03:26:00,
2013-06-28 22:31:00,73.0,59.6,29.70,NNW,338,0.0,0.0,63,0.00,,,0.00,WeatherCatV1.15B25,2013-06-29 03:31:00,
2013-06-28 22:36:00,72.8,59.5,29.70,NNW,328,0.0,0.0,63,0.00,,,0.00,WeatherCatV1.15B25,2013-06-29 03:36:00,
2013-06-28 22:41:00,72.4,59.5,29.69,ESE,121,0.0,0.0,64,0.00,,,0.00,WeatherCatV1.15B25,2013-06-29 03:41:00,
2013-06-28 22:46:00,71.9,59.9,29.70,NNE,27,0.0,0.0,66,0.00,,,0.00,WeatherCatV1.15B25,2013-06-29 03:46:00,
2013-06-28 22:51:00,71.4,59.9,29.70,West,270,0.0,0.0,67,0.00,,,0.00,WeatherCatV1.15B25,2013-06-29 03:51:00,
2013-06-28 22:56:00,71.0,59.9,29.70,ENE,77,0.0,0.0,68,0.00,,,0.00,WeatherCatV1.15B25,2013-06-29 03:56:00,
2013-06-28 23:01:00,70.4,60.1,29.70,ENE,63,0.0,0.0,70,0.00,,,0.00,WeatherCatV1.15B25,2013-06-29 04:01:00,
2013-06-28 23:06:00,69.8,60.0,29.69,ENE,71,0.0,0.0,71,0.00,,,0.00,WeatherCatV1.15B25,2013-06-29 04:06:00,
2013-06-28 23:11:00,69.3,59.9,29.69,ENE,70,0.0,0.0,72,0.00,,,0.00,WeatherCatV1.15B25,2013-06-29 04:11:00,
2013-06-28 23:16:00,68.9,60.3,29.69,ENE,70,0.0,0.0,74,0.00,,,0.00,WeatherCatV1.15B25,2013-06-29 04:16:00,
2013-06-28 23:21:00,68.3,60.1,29.69,WNW,285,0.0,0.0,75,0.00,,,0.00,WeatherCatV1.15B25,2013-06-29 04:21:00,
2013-06-28 23:26:00,67.7,59.9,29.69,NW,314,0.0,0.0,76,0.00,,,0.00,WeatherCatV1.15B25,2013-06-29 04:26:00,
2013-06-28 23:31:00,67.5,60.0,29.69,NW,314,0.0,0.0,77,0.00,,,0.00,WeatherCatV1.15B25,2013-06-29 04:31:00,
2013-06-28 23:36:00,67.3,59.8,29.69,WNW,289,0.0,0.0,77,0.00,,,0.00,WeatherCatV1.15B25,2013-06-29 04:36:00,
2013-06-28 23:41:00,67.3,59.8,29.69,NNW,341,0.0,0.0,77,0.00,,,0.00,WeatherCatV1.15B25,2013-06-29 04:41:00,
2013-06-28 23:46:00,67.2,60.1,29.69,NNW,334,0.0,0.0,78,0.00,,,0.00,WeatherCatV1.15B25,2013-06-29 04:46:00,
2013-06-28 23:51:00,67.2,60.1,29.69,SW,233,0.0,0.0,78,0.00,,,0.00,WeatherCatV1.15B25,2013-06-29 04:51:00,
2013-06-28 23:56:00,67.2,60.1,29.69,ENE,59,0.0,0.0,78,0.00,,,0.00,WeatherCatV1.15B25,2013-06-29 04:56:00,